This demonstration page uses our WeatherBlox Daily Observations layout. Learn more.

Left ArrowRight Arrow

Hourly Observations for September 10, 2019

Temp ( °F °C ) Dew Point ( °F °C ) Humidity (%) Winds ( mph kmh ) Pressure ( in mb ) Visibility ( mi km ) Precip ( " mm )
12:53 am 00:53 Clear 80 26.7 69 20.6 69 69 SSW 3 6 30.12 1020 10 16 0.00 0.00
1:53 am 01:53 Clear 77 25 69 20.6 77 77 Calm 30.14 1021 10 16 0.00 0.00
2:53 am 02:53 Clear 73 22.8 69 20.6 87 87 Calm 30.15 1021 10 16 0.00 0.00
3:53 am 03:53 Clear 73 22.8 68 20 84 84 Calm 30.14 1021 10 16 0.00 0.00
4:53 am 04:53 Clear 76 24.4 70 21.1 82 82 S 3 6 30.16 1021 10 16 0.00 0.00
5:53 am 05:53 Clear 73 22.8 69 20.6 87 87 Calm 30.16 1021 10 16 0.00 0.00
6:53 am 06:53 Clear 72 22.2 69 20.6 91 91 Calm 30.17 1022 9 14 0.00 0.00
7:53 am 07:53 Sunny 72 22.2 69 20.6 91 91 Calm 30.19 1022 7 11 0.00 0.00
8:53 am 08:53 Sunny 78 25.6 71 21.7 79 79 ENE 5 7 30.22 1023 10 16 0.00 0.00
9:53 am 09:53 Sunny 84 28.9 70 21.1 63 63 NNE 5 7 30.22 1023 10 16 0.00 0.00
10:53 am 10:53 Sunny 86 30 68 20 55 55 SW 5 7 30.24 1024 10 16 0.00 0.00
11:53 am 11:53 Sunny 89 31.7 68 20 50 50 ESE 6 9 30.23 1024 10 16 0.00 0.00
1:53 pm 13:53 Mostly Cloudy 93 33.9 66 18.9 41 41 VRB 6 9 30.21 1023 10 16 0.00 0.00
2:53 pm 14:53 Sunny 95 35 66 18.9 39 39 SW 3 6 30.18 1022 10 16 0.00 0.00
3:53 pm 15:53 Mostly Sunny 96 35.6 65 18.3 36 36 ESE 5 7 30.16 1021 10 16 0.00 0.00
4:53 pm 16:53 Mostly Cloudy 97 36.1 64 17.8 34 34 S 9 15 30.14 1021 10 16 0.00 0.00
5:02 pm 17:02 Partly Cloudy with Nearby Thunderstorms 97 36.1 64 17.8 34 34 SW 6 9 30.10 1019 10 16 0.00 0.00
5:41 pm 17:41 Mostly Cloudy with Strong Thunderstorms 80 26.7 69 20.6 69 69 ENE 29 46 30.16 1021 3 4 0.16 4.06
5:46 pm 17:46 Mostly Cloudy with Strong Thunderstorms 77 25 68 20 74 74 NE 23 37 30.16 1021 1 2 0.28 7.11
5:53 pm 17:53 Cloudy with Strong Thunderstorms 75 23.9 67 19.4 76 76 NNE 31 50 30.19 1023 1 2 0.41 10.41
6:00 pm 18:00 Cloudy with Strong Thunderstorms 77 25 66 18.9 69 69 WNW 16 26 30.19 1022 2 3 0.09 2.29
6:08 pm 18:08 Cloudy with Strong Thunderstorms 76 24.4 67 19.4 74 74 NW 14 22 30.18 1022 2 3 0.18 4.57
6:30 pm 18:30 Cloudy with Nearby Thunderstorms 78 25.6 71 21.7 79 79 SSE 5 7 30.15 1021 2 3 0.45 11.43
6:41 pm 18:41 Mostly Cloudy with Nearby Thunderstorms 77 25 72 22.2 85 85 SSE 5 7 30.15 1021 10 16 0.49 12.45
6:53 pm 18:53 Mostly Cloudy with Nearby Thunderstorms 78 25.6 71 21.7 79 79 Calm 30.18 1022 10 16 0.49 12.45
7:06 pm 19:06 Mostly Cloudy 75 23.9 72 22.2 90 90 N 3 6 30.18 1022 10 16 0.00 0.00
7:53 pm 19:53 Mostly Clear 75 23.9 72 22.2 90 90 W 3 6 30.21 1023 10 16 0.00 0.00
8:53 pm 20:53 Clear 74 23.3 71 21.7 91 91 NE 5 7 30.22 1023 10 16 0.00 0.00
9:53 pm 21:53 Mostly Clear 77 25 70 21.1 79 79 ENE 6 9 30.24 1024 10 16 0.00 0.00
10:53 pm 22:53 Clear 74 23.3 71 21.7 91 91 Calm 30.22 1024 10 16 0.00 0.00
11:53 pm 23:53 Clear 74 23.3 71 21.7 91 91 Calm 30.22 1023 10 16 0.00 0.00

Powered by AerisWeather